Location: Peebles
(55.6412°N, 3.1714°W)
Time: 07:51:24
(UTC+00:00)

DOVE 4 - Pass Details

Date: 30 September 2023
Orbit: 583 x 785 km, 97.8° (Epoch: 03 December)

Event Time Altitude Azimuth Distance (km) Brightness Sun altitude
Rises 02:17:05 0° 5° (N) 3,080 ? -34.9°
Reaches altitude 10° 02:21:29 10° 325° (NW) 2,218 ? -34.7°
Enters shadow 02:22:00 10° 319° (NW) 2,202 ? -34.6°
